Location: ???????
(55.5931°N, 39.3286°E)
Time: 02:07:44
(UTC+00:00)

EO 1 Delta rocket - Pass Details

Date: 14 April 2024
Orbit: 696 x 1790 km, 95.4° (Epoch: 18 May)

Event Time Altitude Azimuth Distance (km) Brightness Sun altitude
Rises 00:18:35 0° 12° (NNE) 3,289 8.3 -15.4°
Reaches altitude 10° 00:21:03 10° 16° (NNE) 2,274 7.4 -15.1°
Maximum altitude 00:25:49 57° 96° (E) 828 4.4 -14.6°
Drops below altitude 10° 00:30:21 10° 176° (S) 2,168 6.0 -14.2°
Enters shadow 00:30:51 - 177° (S) 2,373 6.2 -14.1°
